Durango, CO

11:07 AM MDT on May 26, 2017 (GMT -0600)
Durango-La Plata County

Weather History for KDRO - December, 2013

Change the Weather History Date:

Tuesday, December 24, 2013

  Actual Average Record
Temperature  
Mean Temperature 29 °F 24 °F  
Max Temperature 43 °F 38 °F 51 °F (1980)
Min Temperature 14 °F 11 °F -21 °F (1990)
Degree Days  
Heating Degree Days 36 41  
Month to date heating degree days 1019 914  
Since 1 July heating degree days 2702 2587  
Cooling Degree Days 0 0  
Month to date cooling degree days 0 0  
Year to date cooling degree days 388 243  
Moisture  
Dew Point 16 °F    
Average Humidity 63    
Maximum Humidity 88    
Minimum Humidity 38    
Precipitation  
Precipitation 0.00 in 0.04 in 0.45 in (1988)
Month to date precipitation 0.25 0.80  
Year to date precipitation 15.83 15.70  
Sea Level Pressure  
Sea Level Pressure 30.40 in    
Wind  
Wind Speed 4 mph (NW)    
Max Wind Speed 20 mph    
Max Gust Speed 26 mph    
Visibility 10 miles    
Events      
T = Trace of Precipitation, MM = Missing Value Source: NWS Daily Summary

Daily Weather History Graph

Daily Weather History Graph

Search for Another Location

Airport or City:

Trip Planner

Search our weather history database for the weather conditions in past years. The results will help you decide how hot, cold, wet, or windy it might be!

Date:

Astronomy

Dec. 24, 2013 Rise Set
Actual Time 7:22 AM MST 4:59 PM MST
Civil Twilight 6:53 AM MST 5:28 PM MST
Nautical Twilight 6:20 AM MST 6:00 PM MST
Astronomical Twilight 5:48 AM MST 6:32 PM MST
Moon No Moon Rise 11:26 AM MST (12/24)
Length of Visible Light 10h 34m
Length of Day
9h 36m
Waning Gibbous, 58% of the Moon is Illuminated
Dec 24
Waning Gibbous
Dec 25
Last Quarter
Jan 1
New
Jan 7
First Quarter
Jan 15
Full

Hourly Weather History & Observations

Time (MST) Temp. Windchill Dew Point Humidity Pressure Visibility Wind Dir Wind Speed Gust Speed Precip Events Conditions
12:53 AM 18.0 °F 12.7 °F 12.9 °F 81% 30.54 in 10.0 mi North 3.5 mph - N/A   Clear
1:53 AM 17.1 °F - 14.0 °F 88% 30.53 in 10.0 mi Calm Calm - N/A   Clear
2:53 AM 17.1 °F - 12.9 °F 84% 30.52 in 10.0 mi Calm Calm - N/A   Clear
3:53 AM 16.0 °F 8.8 °F 12.9 °F 88% 30.49 in 10.0 mi NE 4.6 mph - N/A   Clear
4:53 AM 17.1 °F - 12.9 °F 84% 30.49 in 10.0 mi Calm Calm - N/A   Clear
5:53 AM 16.0 °F - 12.9 °F 88% 30.51 in 10.0 mi Calm Calm - N/A   Clear
6:53 AM 15.1 °F - 12.0 °F 88% 30.51 in 10.0 mi Calm Calm - N/A   Clear
7:53 AM 15.1 °F - 12.0 °F 88% 30.52 in 10.0 mi Calm Calm - N/A   Clear
8:53 AM 19.9 °F - 16.0 °F 85% 30.50 in 10.0 mi Calm Calm - N/A   Clear
9:53 AM 25.0 °F - 17.1 °F 72% 30.49 in 10.0 mi Calm Calm - N/A   Partly Cloudy
10:53 AM 30.0 °F - 18.0 °F 61% 30.45 in 10.0 mi Calm Calm - N/A   Clear
11:53 AM 33.1 °F - 19.0 °F 56% 30.40 in 10.0 mi Calm Calm - N/A   Clear
12:53 PM 37.0 °F - 19.9 °F 50% 30.34 in 10.0 mi Calm Calm - N/A   Clear
1:53 PM 39.0 °F 33.4 °F 21.9 °F 50% 30.31 in 10.0 mi South 8.1 mph - N/A   Clear
2:53 PM 41.0 °F 35.2 °F 23.0 °F 49% 30.28 in 10.0 mi SW 9.2 mph - N/A   Clear
3:53 PM 43.0 °F 35.4 °F 21.9 °F 43% 30.26 in 10.0 mi West 16.1 mph 23.0 mph N/A   Clear
4:06 PM 42.8 °F 35.4 °F 21.2 °F 42% 30.18 in 10.0 mi West 15.0 mph 24.2 mph N/A   Clear
4:53 PM 41.0 °F 33.5 °F 18.0 °F 40% 30.28 in 10.0 mi WNW 13.8 mph 26.5 mph N/A   Clear
5:53 PM 35.1 °F 31.0 °F 17.1 °F 48% 30.32 in 10.0 mi West 4.6 mph - N/A   Clear
6:53 PM 35.1 °F 25.5 °F 14.0 °F 42% 30.35 in 10.0 mi WNW 15.0 mph 20.7 mph N/A   Clear
7:10 PM 35.6 °F 25.2 °F 10.4 °F 35% 30.22 in 10.0 mi NNW 18.4 mph 25.3 mph N/A   Clear
7:53 PM 33.1 °F 27.7 °F 12.9 °F 43% 30.38 in 10.0 mi NNW 5.8 mph - N/A   Clear
8:53 PM 28.9 °F 21.9 °F 15.1 °F 56% 30.38 in 10.0 mi NNE 6.9 mph - N/A   Clear
9:53 PM 25.0 °F - 18.0 °F 75% 30.40 in 10.0 mi Calm Calm - N/A   Clear
10:53 PM 24.1 °F 17.0 °F 19.0 °F 81% 30.41 in 10.0 mi ENE 5.8 mph - N/A   Clear
11:53 PM 21.9 °F 14.5 °F 18.0 °F 85% 30.42 in 10.0 mi East 5.8 mph - N/A   Clear